Date,TemperatureHighF,TemperatureAvgF,TemperatureLowF,DewpointHighF,DewpointAvgF,DewpointLowF,HumidityHigh,HumidityAvg,HumidityLow,PressureMaxIn,PressureMinIn,WindSpeedMaxMPH,WindSpeedAvgMPH,GustSpeedMaxMPH,PrecipitationSumIn
2013-1-1,31,26,15,22,17,10,79,70,61,30.21,30.11,2,0,0,0.00
2013-1-2,26,17,13,14,9,4,80,69,57,30.25,30.18,2,0,0,0.00
2013-1-3,31,24,14,24,16,5,81,71,60,30.29,30.14,3,1,0,0.00
2013-1-4,26,20,14,20,14,9,82,78,69,30.29,30.21,4,2,0,0.00
2013-1-5,38,29,20,30,23,16,88,78,61,30.31,30.08,3,0,0,0.00
2013-1-6,35,33,29,30,27,22,83,78,72,30.37,29.97,3,2,0,0.00
2013-1-7,36,28,21,26,21,17,87,73,56,30.42,30.20,3,1,0,0.00
2013-1-8,40,33,28,28,24,21,79,71,59,30.28,30.16,2,0,0,0.00
2013-1-9,49,40,30,33,28,20,79,63,37,30.52,30.11,4,2,0,0.00
2013-1-10,41,34,24,35,27,20,91,76,58,30.58,30.09,3,1,0,0.00
2013-1-11,53,48,37,51,44,35,94,88,80,30.09,29.79,4,1,0,0.00
2013-1-12,58,51,39,48,44,34,89,75,59,30.02,29.85,3,1,0,0.00
2013-1-13,39,33,22,36,30,16,92,89,77,30.22,29.87,4,1,10,0.04
2013-1-14,25,21,17,17,14,11,79,73,66,30.50,30.22,4,1,10,0.02
2013-1-15,30,21,14,19,14,10,86,75,57,30.48,30.34,2,0,5,0.01
2013-1-19,47,44,41,35,34,30,75,67,58,29.83,29.80,5,3,0,0.00
2013-1-20,42,22,17,30,11,6,76,63,42,30.30,29.82,7,2,0,0.00
2013-1-21,19,13,8,8,5,1,81,68,52,30.24,30.12,6,2,0,0.00
2013-1-22,11,7,3,4,1,-3,81,74,63,30.37,30.24,2,0,0,0.00
2013-1-23,19,14,8,15,5,-1,84,67,53,30.34,30.12,2,1,0,0.00
2013-1-24,20,15,8,13,4,0,83,64,43,30.67,30.20,1,0,0,0.00
2013-1-25,25,21,17,20,13,4,83,71,56,30.50,30.03,2,1,0,0.00
2013-1-26,28,25,23,21,18,15,82,74,67,30.47,30.10,2,0,0,0.00
2013-1-27,34,27,22,31,20,15,88,75,66,30.48,30.08,4,1,0,0.00
2013-1-28,48,42,34,47,40,31,95,94,89,30.08,29.91,2,1,0,0.00
2013-1-29,57,53,39,56,52,38,96,94,89,30.02,29.48,4,1,17,0.35
2013-1-30,53,44,27,51,41,23,95,92,81,29.53,29.23,5,1,17,0.08
2013-1-31,27,17,12,23,12,8,86,79,64,30.07,29.53,5,2,17,0.01
2013-2-1,14,9,4,8,3,-2,83,75,64,30.37,30.07,3,1,11,0.00
2013-2-2,25,19,14,21,14,7,85,79,67,30.27,30.01,2,0,6,0.00
2013-2-3,22,17,12,16,10,5,82,75,69,30.10,29.96,4,1,11,0.00
2013-2-4,26,22,18,20,18,12,87,82,75,30.10,29.88,2,0,7,0.00
2013-2-5,32,25,13,27,20,10,89,83,66,30.06,29.85,2,0,2,0.00
2013-2-6,35,30,21,23,21,15,82,69,54,30.31,30.06,2,0,0,0.00
2013-2-7,41,33,27,32,26,22,90,76,61,30.23,29.87,2,1,0,0.00
2013-2-8,34,32,29,32,25,19,92,77,62,30.41,29.87,3,1,0,0.00
2013-2-9,35,27,17,24,20,14,89,75,62,30.47,30.23,2,1,0,0.00
2013-2-10,47,37,28,45,31,21,92,78,68,30.23,29.65,3,1,0,0.00
2013-2-11,50,37,31,46,27,21,91,68,63,30.03,29.62,6,4,0,0.00
2013-2-12,34,30,26,22,21,19,75,69,61,30.15,30.01,4,1,0,0.00
2013-2-13,45,33,21,30,25,17,88,72,53,30.01,29.78,2,0,0,0.00
2013-2-14,41,37,33,32,28,20,82,71,54,30.01,29.75,4,2,0,0.00
2013-2-15,34,28,21,26,20,12,87,70,53,30.22,29.99,3,0,0,0.00
2013-2-16,25,20,14,19,12,5,81,71,52,30.19,30.13,4,1,0,0.00
2013-2-17,31,21,11,16,11,7,86,67,38,30.27,30.16,2,0,0,0.00
2013-2-18,54,39,24,43,27,12,87,63,52,30.17,29.52,3,2,0,0.00
2013-2-19,45,22,15,42,16,8,89,78,64,30.12,29.50,5,3,0,0.00
2013-2-20,23,19,15,17,14,10,84,80,72,30.37,30.12,3,1,0,0.00
2013-2-21,27,24,21,18,17,14,83,73,66,30.42,30.13,5,1,0,0.00
2013-2-22,34,27,21,32,24,14,91,85,70,30.13,29.88,4,2,0,0.00
2013-2-23,31,27,26,23,20,16,80,72,59,30.01,29.96,3,2,0,0.00
2013-2-24,38,28,20,24,20,15,84,71,53,30.22,30.00,2,1,0,0.00
2013-2-25,42,31,19,26,22,16,89,71,50,30.25,30.08,2,1,0,0.00
2013-2-26,35,33,31,31,26,22,91,76,62,30.10,29.53,6,3,0,0.00
2013-3-2,29,28,28,19,18,17,69,66,64,30.16,30.15,2,1,0,0.00
2013-3-3,32,27,19,19,15,11,76,62,49,30.15,30.10,2,1,0,0.00
2013-3-4,37,27,16,23,17,12,86,66,42,30.18,30.08,2,0,0,0.00
2013-3-5,34,30,28,27,24,21,91,78,63,30.12,29.82,4,2,0,0.00